Regional Weather Roundup
Issued by NWS

Home | Current Version | Previous Version | Graphics & Text | Print | Product List | Glossary On
Versions: 1 2 3 4 5 6 7 8 9 10 11 12 13 14 15 16 17 18 19 20 21 22 23 24 25 26 27 28 29 30 31 32 33 34 35 36 37 38 39 40 41 42 43 44 45 46 47 48 49 50
338
ASUS43 KLMK 261010
RWRKY
KENTUCKY REGIONAL WEATHER ROUNDUP
NATIONAL WEATHER SERVICE LOUISVILLE KY
600 AM EDT SUN MAR 26 2017

NOTE "FAIR" INDICATES FEW OR NO CLOUDS BELOW 12,000 FEET
WITH NO SIGNIFICANT WEATHER AND/OR OBSTRUCTIONS TO VISIBILITY.

KYZ001>023-026-027-061>063-070>075-261100-
WESTERN AND SOUTH CENTRAL KENTUCKY

CITY           SKY/WX    TMP DP  RH WIND       PRES   REMARKS
PADUCAH        CLOUDY    57  53  86 S3        29.88S
HENDERSON      CLOUDY    57  54  88 S6        29.89R
OWENSBORO      LGT RAIN  58  56  93 S10       29.92S
HOPKINSVILLE   MOCLDY    59  55  88 S6        29.92F
BOWLING GREEN  LGT RAIN  58  56  93 SE7       29.95F
GLASGOW        CLOUDY   N/A N/A N/A S6        29.97R
$$

KYZ024-025-028>034-038-045-046-053-261100-
NORTH CENTRAL KENTUCKY

CITY           SKY/WX    TMP DP  RH WIND       PRES   REMARKS
LOUISVILLE/SDF LGT RAIN  58  56  93 SE8       29.96R
LOUISVILLE/LOU LGT RAIN  59  56  89 SE5       29.96F
FORT KNOX      CLOUDY    57  57 100 SE7       29.93F
$$

KYZ035>037-039>044-047>052-055>060-089>105-261100-
NORTHEAST KENTUCKY

CITY           SKY/WX    TMP DP  RH WIND       PRES   REMARKS
LEXINGTON      RAIN      57  54  89 S8        30.00S FOG
COVINGTON      LGT RAIN  58  56  93 S6        29.98R
FRANKFORT      RAIN      57  53  86 S12       29.98S FOG
$$

KYZ054-064>069-076>088-106>120-261100-
SOUTHEAST KENTUCKY

CITY           SKY/WX    TMP DP  RH WIND       PRES   REMARKS
JACKSON        MOCLDY    61  46  57 SW3       30.01R
LONDON         RAIN      56  53  90 SE6       30.02S FOG
SOMERSET       RAIN      55  55 100 CALM      30.02S
MIDDLESBORO    LGT RAIN  56  55  95 S5        30.07R
MONTICELLO     LGT RAIN  57  56  96 W7        30.03R
$$





USA.gov is the U.S. government's official web portal to all federal, state and local government web resources and services.